�N����,����,����,����,����,�C��,���x,�~����,���Ǝ���,�S�V����,�ő�u�ԕ���,,,
,,,,,,,,,,����,����,����,�N��
yyyy/mm/dd,hh:mm:ss,(16),16����,m/s,��,%,mm,min,KW/�u,(16),16����,m/s,Time
2012/5/1,1:00:00,23,�k�k��,2,7.6,99.6,0,0,0,68,���k��,4.6,7
2012/5/1,2:00:00,45,�k��,1.8,7.1,99.6,0,0,0,360,�k,4.2,16
2012/5/1,3:00:00,45,�k��,1.5,7.1,99.6,0,0,0.01,360,�k,3.5,6
2012/5/1,4:00:00,23,�k�k��,0.7,7.1,99.7,0,0,0,360,�k,2.2,43
2012/5/1,5:00:00,158,��쓌,1.4,7.2,99.7,0,0,0.01,180,��,2.4,55
2012/5/1,6:00:00,225,�쐼,1.4,7.1,99.7,0,0,0.05,203,��쐼,3.2,47
2012/5/1,7:00:00,203,��쐼,0.4,7.7,99.6,0,28,0.13,180,��,1.9,0
2012/5/1,8:00:00,68,���k��,0.7,9.1,99.5,0,60,0.22,68,���k��,1.6,58
2012/5/1,9:00:00,90,��,1.9,10.3,98.8,0,60,0.36,113,���쓌,3.4,50
2012/5/1,10:00:00,90,��,3.6,13.1,81.3,0,60,0.78,90,��,5,57
2012/5/1,11:00:00,90,��,3.6,14.4,78,0,60,0.91,90,��,5.8,31
2012/5/1,12:00:00,158,��쓌,4.1,16.4,71.4,0,60,0.86,158,��쓌,9.4,57
2012/5/1,13:00:00,180,��,5.5,17,65.9,0,60,0.68,180,��,11.4,43
2012/5/1,14:00:00,180,��,6.6,16.2,68.3,0,60,0.5,180,��,12.3,41
2012/5/1,15:00:00,203,��쐼,6.1,16.7,66.9,0,60,0.51,203,��쐼,13.3,10
2012/5/1,16:00:00,180,��,5.2,16.4,67.1,0,60,0.44,180,��,8.9,0
2012/5/1,17:00:00,180,��,4.8,12.3,84.5,0,60,0.21,180,��,9.4,0
2012/5/1,18:00:00,180,��,5.5,10.7,92.7,0,8,0.08,180,��,10.9,22
2012/5/1,19:00:00,180,��,4.5,10.5,94.3,0,0,0.01,180,��,8.5,39
2012/5/1,20:00:00,180,��,4.2,9.5,95.5,0,0,0,180,��,7.8,17
2012/5/1,21:00:00,203,��쐼,3.1,10.5,91.9,0,0,0,203,��쐼,7.1,24
2012/5/1,22:00:00,180,��,2.9,11.1,87.2,0,0,0,203,��쐼,6.1,23
2012/5/1,23:00:00,180,��,4.4,10.3,92.8,0,0,0,180,��,8,59
2012/5/1,0:00:00,203,��쐼,2.5,10.3,93.7,0,0,0,158,��쓌,9,7
2012/5/2,1:00:00,180,��,2.1,9.5,92.9,0,0,0,180,��,6.1,20
2012/5/2,2:00:00,225,�É�,0.2,8.7,97.7,0,0,0,180,��,2.5,1
2012/5/2,3:00:00,68,���k��,1.5,8.7,97.5,0,0,0.01,315,�k��,3.4,24
2012/5/2,4:00:00,23,�k�k��,0.5,9.1,98,0,0,0.01,360,�k,2.2,35
2012/5/2,5:00:00,180,��,0.8,8.3,98.6,0,0,0.01,293,���k��,1.6,33
2012/5/2,6:00:00,68,���k��,0.5,9.8,98.9,0,0,0.07,360,�k,2.6,44
2012/5/2,7:00:00,23,�k�k��,0.8,11,96.2,0,51,0.15,68,���k��,2.3,16
2012/5/2,8:00:00,68,���k��,1.2,12.8,90.2,0,60,0.22,68,���k��,2.1,59
2012/5/2,9:00:00,158,��쓌,2.4,12,91.1,0,60,0.39,158,��쓌,5.4,51
2012/5/2,10:00:00,158,��쓌,2.9,13.5,84.8,0,60,0.47,180,��,6.9,46
2012/5/2,11:00:00,180,��,5.2,14.7,75,0,60,0.93,203,��쐼,9.5,46
2012/5/2,12:00:00,180,��,6.5,15.1,72,0,60,0.96,158,��쓌,11.2,50
2012/5/2,13:00:00,180,��,6.5,15,73.2,0,60,0.92,180,��,13.2,6
2012/5/2,14:00:00,180,��,6.4,14.4,75.1,0,60,0.81,180,��,12,10
2012/5/2,15:00:00,180,��,5.9,13.7,80.1,0,60,0.65,180,��,12.4,1
2012/5/2,16:00:00,180,��,4.9,12.3,83.2,0,60,0.45,180,��,10.2,38
2012/5/2,17:00:00,180,��,4.4,10.5,88.9,0,60,0.27,180,��,9.2,7
2012/5/2,18:00:00,180,��,3.8,10.6,93.3,0,31,0.11,180,��,7.9,27
2012/5/2,19:00:00,158,��쓌,2.8,8.8,98,0,0,0.01,180,��,6.2,45
2012/5/2,20:00:00,135,�쓌,1.5,8.6,98.7,0,0,0,158,��쓌,6.1,16
2012/5/2,21:00:00,135,�쓌,1.9,9.5,99.3,0,0,0,158,��쓌,3.5,3
2012/5/2,22:00:00,45,�k��,2.5,8.6,99.3,0,0,0.01,135,�쓌,3.8,6
2012/5/2,23:00:00,45,�k��,2.8,8.1,99.4,0,0,0.01,68,���k��,5.1,33
2012/5/2,0:00:00,68,���k��,3.4,8.4,99.5,0.5,0,0.01,68,���k��,5.1,36
2012/5/3,1:00:00,68,���k��,3.4,8.8,99.6,0,0,0,45,�k��,5.7,7
2012/5/3,2:00:00,68,���k��,2.4,8.7,99.7,0,0,0,68,���k��,4.5,38
2012/5/3,3:00:00,23,�k�k��,1.3,8.9,99.7,0,0,0.01,68,���k��,3.7,0
2012/5/3,4:00:00,45,�k��,1.9,8.9,99.7,0,0,0,45,�k��,3.6,13
2012/5/3,5:00:00,68,���k��,2.9,8.7,99.8,0,0,0.01,45,�k��,4.4,56
2012/5/3,6:00:00,68,���k��,2.9,8.9,99.8,0.5,0,0.02,68,���k��,4.3,54
2012/5/3,7:00:00,68,���k��,2.5,9.2,99.8,0,0,0.04,68,���k��,4.2,0
2012/5/3,8:00:00,68,���k��,3.3,9.8,99.8,0,7,0.09,68,���k��,4.5,55
2012/5/3,9:00:00,68,���k��,2.8,10.3,99.8,0,34,0.13,45,�k��,4.1,10
2012/5/3,10:00:00,90,��,2.5,10.4,99.8,0,60,0.16,90,��,3.3,55
2012/5/3,11:00:00,90,��,1.6,10.7,99.8,0,57,0.15,68,���k��,3.4,0
2012/5/3,12:00:00,68,���k��,2.7,10.4,99.8,0,13,0.1,68,���k��,3.7,41
2012/5/3,13:00:00,113,���쓌,2.2,10.3,99.8,0.5,26,0.1,90,��,3.8,28
2012/5/3,14:00:00,113,���쓌,2.9,9.8,99.7,0,14,0.1,113,���쓌,4.4,53
2012/5/3,15:00:00,68,���k��,3.2,9.8,99.7,0,9,0.1,45,�k��,4.8,48
2012/5/3,16:00:00,45,�k��,3,9.6,99.7,0,6,0.09,45,�k��,4.3,30
2012/5/3,17:00:00,45,�k��,2.3,9.6,99.6,0,0,0.03,45,�k��,4.2,15
2012/5/3,18:00:00,45,�k��,2.5,9.2,99.7,0,0,0.01,45,�k��,4.4,31
2012/5/3,19:00:00,45,�k��,3,8.8,99.7,0,0,0.01,68,���k��,5.7,49
2012/5/3,20:00:00,68,���k��,3.7,8.6,99.7,1,0,0,45,�k��,5.5,58
2012/5/3,21:00:00,45,�k��,4,8.2,99.8,0.5,0,0.01,45,�k��,7.4,32
2012/5/3,22:00:00,68,���k��,3.9,8.9,99.9,2.5,0,0.01,68,���k��,7.5,13
2012/5/3,23:00:00,90,��,5.6,7.9,99.8,5.5,0,0,90,��,8.8,51
2012/5/3,0:00:00,90,��,5.9,8.2,99.8,6,0,0,90,��,10.4,16
2012/5/4,1:00:00,90,��,6.3,8,99.8,3.5,0,0,90,��,10.4,35
2012/5/4,2:00:00,90,��,5.7,7.8,99.9,4.5,0,0,90,��,9.5,35
2012/5/4,3:00:00,68,���k��,5.1,7.7,99.9,5.5,0,0,68,���k��,10.4,28
2012/5/4,4:00:00,68,���k��,4.5,7.6,99.9,6.5,0,0,68,���k��,7.6,27
2012/5/4,5:00:00,45,�k��,4.9,7.8,99.9,9.5,0,0.01,68,���k��,8.2,24
2012/5/4,6:00:00,45,�k��,5.4,8.3,99.9,9.5,0,0.01,45,�k��,7.8,49
2012/5/4,7:00:00,68,���k��,5.1,8.2,99.9,10,0,0.02,68,���k��,8.8,47
2012/5/4,8:00:00,45,�k��,4.8,8.2,99.8,8,0,0.04,45,�k��,9,2
2012/5/4,9:00:00,68,���k��,7.2,8.5,99.8,10.5,0,0.06,68,���k��,10.7,57
2012/5/4,10:00:00,68,���k��,6.7,8,99.7,12,0,0.07,45,�k��,11.2,21
2012/5/4,11:00:00,68,���k��,3.1,8.5,99.7,15.5,0,0.06,68,���k��,8.7,13
2012/5/4,12:00:00,45,�k��,2.9,8.6,99.6,15,0,0.06,45,�k��,7.4,3
2012/5/4,13:00:00,23,�k�k��,1.6,8.3,99.2,15.5,0,0.05,360,�k,4.7,59
2012/5/4,14:00:00,45,�k��,2.7,8.3,98.7,15.5,0,0.06,45,�k��,6.6,28
2012/5/4,15:00:00,45,�k��,4.1,8.5,98.2,8.5,0,0.05,23,�k�k��,7.4,40
2012/5/4,16:00:00,360,�k,1.9,8.6,98.2,10.5,0,0.05,45,�k��,6.6,12
2012/5/4,17:00:00,360,�k,2.6,8.6,98,10.5,0,0.03,23,�k�k��,5.8,0
2012/5/4,18:00:00,360,�k,2.5,8.6,97.8,9,0,0.01,360,�k,5.2,3
2012/5/4,19:00:00,338,�k�k��,2.6,8.5,97.6,6.5,0,0.01,360,�k,5.1,59
2012/5/4,20:00:00,360,�k,3.2,8.6,96.7,4,0,0,360,�k,6,38
2012/5/4,21:00:00,360,�k,2.6,8.6,97,5.5,0,0,360,�k,6.7,10
2012/5/4,22:00:00,315,�k��,2.5,8.7,97.8,7,0,0,360,�k,5.7,18
2012/5/4,23:00:00,293,���k��,1.4,8.9,98.5,2,0,0,360,�k,4.9,0
2012/5/4,0:00:00,113,���쓌,1.2,8.4,98.8,0.5,0,0,338,�k�k��,2.3,3
2012/5/5,1:00:00,68,���k��,0.9,8.5,99.4,0,0,0,113,���쓌,2.3,32
2012/5/5,2:00:00,45,�k��,1.7,8.9,99.4,0.5,0,0,45,�k��,2.8,46
2012/5/5,3:00:00,293,���k��,1,8.8,99.5,0,0,0.01,68,���k��,3,19
2012/5/5,4:00:00,45,�k��,2.5,8.5,99.5,0,0,0,68,���k��,3.9,52
2012/5/5,5:00:00,45,�k��,1.4,8.6,99.6,0,0,0.01,45,�k��,3.3,1
2012/5/5,6:00:00,45,�k��,1.1,8.2,99.6,0,0,0.02,68,���k��,2.4,46
2012/5/5,7:00:00,45,�k��,1.4,8.7,99.7,1,0,0.04,23,�k�k��,3.3,30
2012/5/5,8:00:00,68,���k��,1.2,8.8,99.7,2.5,0,0.06,68,���k��,2.6,20
2012/5/5,9:00:00,45,�k��,2.1,10.5,99.3,1.5,45,0.23,68,���k��,3.2,55
2012/5/5,10:00:00,68,���k��,2.8,9.5,98.5,0,57,0.28,90,��,4.4,29
2012/5/5,11:00:00,68,���k��,1.7,11.4,97.6,0,60,0.41,68,���k��,4.1,10
2012/5/5,12:00:00,135,�쓌,3.5,10.2,93.1,0,60,0.47,135,�쓌,4.8,53
2012/5/5,13:00:00,90,��,4.4,9.3,90.6,0,60,0.63,90,��,6.1,56
2012/5/5,14:00:00,45,�k��,3.3,11.2,87.7,0,60,0.5,68,���k��,5.6,24
2012/5/5,15:00:00,45,�k��,2.4,11.9,87.9,0,60,0.58,90,��,6.7,9
2012/5/5,16:00:00,113,���쓌,2.6,11.2,85.9,0,60,0.36,113,���쓌,3.5,56
2012/5/5,17:00:00,90,��,3,9,93.9,0,59,0.19,113,���쓌,6,34
2012/5/5,18:00:00,113,���쓌,1.8,7.9,96,0,5,0.08,90,��,4,0
2012/5/5,19:00:00,90,��,1.3,6.8,98.4,0,0,0.01,68,���k��,3.2,32
2012/5/5,20:00:00,23,�k�k��,0.5,6,99.1,0,0,0,90,��,1.9,16
2012/5/5,21:00:00,293,���k��,1.9,5.8,99.4,0,0,0.01,270,��,3.1,50
2012/5/5,22:00:00,293,���k��,0.5,6.6,99.6,0,0,0,270,��,2.4,38
2012/5/5,23:00:00,225,�쐼,4.3,10.1,91.5,0,0,0,225,�쐼,7.3,56
2012/5/5,0:00:00,135,�쓌,2.5,11.2,80.4,0,0,0.01,225,�쐼,11.4,11
2012/5/6,1:00:00,203,��쐼,1.6,10.4,81,0,0,0,135,�쓌,4.2,4
2012/5/6,2:00:00,225,�쐼,3.2,10.5,72.9,0,0,0.01,248,���쐼,10.8,21
2012/5/6,3:00:00,248,���쐼,3,9.9,75,0,0,0,248,���쐼,7.7,2
2012/5/6,4:00:00,270,��,4.1,9.8,70.3,0,0,0,270,��,6.8,27
2012/5/6,5:00:00,248,���쐼,3.5,9.2,78.2,0,0,0.03,270,��,5.4,59
2012/5/6,6:00:00,135,�쓌,2.8,10.4,72.4,0,48,0.17,158,��쓌,5,56
2012/5/6,7:00:00,158,��쓌,2.4,11.5,70.9,0,60,0.37,180,��,4.5,6
2012/5/6,8:00:00,180,��,2.3,13,67.2,0,60,0.57,158,��쓌,5.3,34
2012/5/6,9:00:00,158,��쓌,3.3,13.1,60.8,0,60,0.74,158,��쓌,5.6,20
2012/5/6,10:00:00,180,��,4.2,16.3,50.2,0,60,0.88,180,��,8,58
2012/5/6,11:00:00,158,��쓌,4.6,13.6,59.9,0,60,0.98,180,��,9.7,18
2012/5/6,12:00:00,158,��쓌,5.8,13.3,64.1,0,60,0.99,180,��,10.4,40
2012/5/6,13:00:00,180,��,3.3,12.2,71,0,60,0.72,180,��,10.1,21
2012/5/6,14:00:00,158,��쓌,3.7,10.9,86.7,0,22,0.11,135,�쓌,9.1,36
2012/5/6,15:00:00,68,���k��,1,10.9,91.4,0,23,0.08,135,�쓌,5.3,0
2012/5/6,16:00:00,45,�k��,3.3,9.6,97.1,10,0,0.01,68,���k��,5.5,14
2012/5/6,17:00:00,23,�k�k��,1.7,9.8,96.6,3,0,0.01,23,�k�k��,7.5,18
2012/5/6,18:00:00,338,�k�k��,3.1,10,96.8,6,0,0.01,270,��,7.4,21
2012/5/6,19:00:00,293,���k��,2.5,9.9,97.2,7,0,0,23,�k�k��,6.4,6
2012/5/6,20:00:00,293,���k��,3.4,9.8,97.1,4,0,0,293,���k��,5.7,58
2012/5/6,21:00:00,315,�k��,1.5,9.9,95.2,0.5,0,0,315,�k��,6.5,4
2012/5/6,22:00:00,270,��,1.6,8.9,96.5,0,0,0,270,��,2.7,58
2012/5/6,23:00:00,225,�쐼,1.1,9.1,97.9,0,0,0,225,�쐼,3.9,3
2012/5/6,0:00:00,180,��,1.8,9.2,98.1,0.5,0,0,180,��,3.4,59
2012/5/7,1:00:00,135,�쓌,2.5,7.5,98.3,0.5,0,0,135,�쓌,4.7,53
2012/5/7,2:00:00,203,��쐼,3.2,7.2,98.9,0,0,0,158,��쓌,8.2,29
2012/5/7,3:00:00,225,�쐼,2.6,8.1,98.7,0,0,0,180,��,8.3,10
2012/5/7,4:00:00,158,��쓌,2.8,9.1,92.4,0,0,0.01,158,��쓌,5.5,55
2012/5/7,5:00:00,248,���쐼,3,8.2,96,0,0,0.04,158,��쓌,5.8,16
2012/5/7,6:00:00,315,�k��,1.2,10.5,91.5,0,42,0.16,23,�k�k��,4.1,19
2012/5/7,7:00:00,360,�k,1.9,12.8,79.5,0,60,0.39,338,�k�k��,3.3,59
2012/5/7,8:00:00,90,��,3,13.9,77.3,0,60,0.62,90,��,4.9,58
2012/5/7,9:00:00,113,���쓌,4,13.6,74.3,0,60,0.78,113,���쓌,6,45
2012/5/7,10:00:00,135,�쓌,2.5,13.8,62.1,0,60,0.88,113,���쓌,6,0
2012/5/7,11:00:00,158,��쓌,4.3,14.7,60.3,0,60,0.99,158,��쓌,8.1,53
2012/5/7,12:00:00,158,��쓌,4.1,13.8,67.7,0,60,1,158,��쓌,6.9,41
2012/5/7,13:00:00,180,��,4.8,13.1,66.6,0,60,0.87,158,��쓌,8.6,58
2012/5/7,14:00:00,203,��쐼,2.5,15.1,65.2,0,56,0.27,180,��,10.4,3
2012/5/7,15:00:00,225,�쐼,6,16.3,49.5,0,60,0.35,248,���쐼,9.8,18
2012/5/7,16:00:00,248,���쐼,5.5,16.7,50.4,0,60,0.46,225,�쐼,9.9,39
2012/5/7,17:00:00,225,�쐼,6.2,15.6,49.4,0,60,0.41,248,���쐼,9.6,56
2012/5/7,18:00:00,225,�쐼,2.7,14.2,57.2,0,38,0.15,225,�쐼,8.5,7
2012/5/7,19:00:00,180,��,3,9.3,81.6,0,0,0.01,203,��쐼,5.1,38
2012/5/7,20:00:00,203,��쐼,2.8,9,83.2,0,0,0,203,��쐼,5.4,58
2012/5/7,21:00:00,180,��,3,9.1,81.6,0,0,0,203,��쐼,6.4,9
2012/5/7,22:00:00,203,��쐼,1.7,7.8,85,0,0,0,203,��쐼,6,8
2012/5/7,23:00:00,270,��,1.1,4.9,95.2,0,0,0,225,�쐼,3,13
2012/5/7,0:00:00,293,�É�,0.2,4.6,97.3,0,0,0,225,�쐼,2.5,55
2012/5/8,1:00:00,293,���k��,1.5,5.4,96.3,0,0,0.01,293,���k��,2.8,41
2012/5/8,2:00:00,315,�k��,1.7,6.2,96,0,0,0.01,293,���k��,2.6,47
2012/5/8,3:00:00,293,���k��,1,6.5,94.7,0,0,0,338,�k�k��,2.7,5
2012/5/8,4:00:00,360,�k,0.4,6.3,95.6,0,0,0.01,315,�k��,2.3,7
2012/5/8,5:00:00,23,�k�k��,1.7,6.6,96.9,0,0,0.03,23,�k�k��,2.3,57
2012/5/8,6:00:00,45,�k��,2.2,8.6,92.1,0,9,0.11,45,�k��,3.5,53
2012/5/8,7:00:00,90,��,3.2,8.8,90,0,60,0.19,90,��,4.8,47
2012/5/8,8:00:00,68,���k��,3.3,11,79.7,0,60,0.4,68,���k��,4.7,59
2012/5/8,9:00:00,68,���k��,3.6,11.7,80.5,0,60,0.76,68,���k��,6,52
2012/5/8,10:00:00,113,���쓌,3.7,11.2,81.4,0,60,0.88,90,��,5.2,59
2012/5/8,11:00:00,90,��,3.1,11.7,81.8,0,60,0.93,90,��,4.9,0
2012/5/8,12:00:00,113,���쓌,3.3,9.6,87.4,0,60,0.78,113,���쓌,6.6,32
2012/5/8,13:00:00,113,���쓌,1.7,11.4,84.1,0,60,0.86,113,���쓌,5.2,12
2012/5/8,14:00:00,113,���쓌,1.3,11.1,81.4,0,60,0.56,113,���쓌,4,13
2012/5/8,15:00:00,135,�쓌,2,9.9,83.9,0,60,0.41,135,�쓌,4.1,17
2012/5/8,16:00:00,90,��,1.7,10.3,85.7,0,60,0.37,135,�쓌,3.4,1
2012/5/8,17:00:00,68,���k��,5.2,8.8,92.9,0,41,0.12,68,���k��,7.5,57
2012/5/8,18:00:00,68,���k��,4.7,8.6,96.4,0,0,0.05,68,���k��,10,40
2012/5/8,19:00:00,68,���k��,2.4,8.7,96.5,0,0,0.01,68,���k��,6.5,0
2012/5/8,20:00:00,45,�k��,2.7,8.7,96.9,0,0,0,68,���k��,4.7,42
2012/5/8,21:00:00,45,�k��,1.5,9,96.8,0,0,0,45,�k��,4.1,36
2012/5/8,22:00:00,360,�k,1.4,9.3,94.6,0,0,0,360,�k,2.9,53
2012/5/8,23:00:00,338,�k�k��,1.3,9.3,94.8,0,0,0,315,�k��,2.5,53
2012/5/8,0:00:00,45,�k��,0.7,8.9,97.2,0,0,0,360,�k,1.6,0
2012/5/9,1:00:00,360,�k,1.1,8.8,97.9,0,0,0,360,�k,1.7,53
2012/5/9,2:00:00,90,��,0.6,8.6,98.6,0,0,0,23,�k�k��,1.3,14
2012/5/9,3:00:00,23,�k�k��,1.6,8.3,98.9,0.5,0,0,113,���쓌,3.6,29
2012/5/9,4:00:00,338,�k�k��,0.3,8.3,99,0,0,0,45,�k��,2.1,2
2012/5/9,5:00:00,338,�k�k��,0.7,8.7,99.1,0,0,0.01,270,��,2.4,16
2012/5/9,6:00:00,45,�k��,1.9,9.2,98.7,0.5,0,0.03,45,�k��,3.3,48
2012/5/9,7:00:00,45,�k��,3.6,9,97.4,0,0,0.07,45,�k��,5.5,56
2012/5/9,8:00:00,68,���k��,3.7,8.4,95.1,0,48,0.14,68,���k��,7.8,20
2012/5/9,9:00:00,68,���k��,3,8.1,97,0,48,0.14,45,�k��,5.9,7
2012/5/9,10:00:00,68,���k��,1.8,9.2,94.5,0,60,0.22,68,���k��,4.6,6
2012/5/9,11:00:00,68,���k��,2.5,10.3,87.4,0,60,0.39,90,��,5.3,19
2012/5/9,12:00:00,90,��,2.7,11.8,80.5,0,60,0.74,90,��,4.7,49
2012/5/9,13:00:00,113,���쓌,3.6,12.1,73.8,0,60,0.97,90,��,5.4,46
2012/5/9,14:00:00,113,���쓌,3.8,11.3,75.8,0,60,0.86,113,���쓌,6,48
2012/5/9,15:00:00,113,���쓌,2.7,11.1,81.1,0,60,0.71,113,���쓌,6.2,28
2012/5/9,16:00:00,113,���쓌,3.2,10.8,82.1,0,60,0.53,90,��,5.8,18
2012/5/9,17:00:00,68,���k��,3.9,9.5,85.1,0,60,0.31,68,���k��,5.2,57
2012/5/9,18:00:00,90,��,2,7,97.4,0,5,0.06,68,���k��,4.8,4
2012/5/9,19:00:00,68,���k��,2.1,6.8,98.9,0,0,0.01,68,���k��,2.8,59
2012/5/9,20:00:00,45,�k��,2.3,6.8,99.2,0,0,0,23,�k�k��,3.6,55
2012/5/9,21:00:00,45,�k��,2.4,6.2,99.2,0,0,0,68,���k��,5.2,29
2012/5/9,22:00:00,23,�k�k��,1,7.1,99.4,0,0,0,45,�k��,3.8,16
2012/5/9,23:00:00,45,�k��,0.8,7.4,99.4,0,0,0,23,�k�k��,2.5,6
2012/5/9,0:00:00,135,�쓌,1,7,98.7,0,0,0,113,���쓌,2.4,48
2012/5/10,1:00:00,270,��,0.4,7,99,0,0,0,180,��,1.4,14
2012/5/10,2:00:00,113,���쓌,0.4,7.3,99.2,0,0,0,360,�k,1.6,27
2012/5/10,3:00:00,68,���k��,2.2,6.7,98.9,0,0,0,90,��,3.5,28
2012/5/10,4:00:00,90,��,3.2,6.6,98.5,0,0,0,90,��,4.9,0
2012/5/10,5:00:00,68,���k��,2.9,6.7,97.1,0,0,0.01,68,���k��,6,19
2012/5/10,6:00:00,45,�k��,2.6,6.8,96.8,0,0,0.02,45,�k��,6.5,14
2012/5/10,7:00:00,45,�k��,2.3,7.1,93.2,0,0,0.05,68,���k��,5.5,2
2012/5/10,8:00:00,68,���k��,0.9,7.3,92.1,0,0,0.07,68,���k��,2.6,3
2012/5/10,9:00:00,90,��,2.2,7.5,92,0,0,0.09,90,��,3.6,59
2012/5/10,10:00:00,68,���k��,4.4,7.2,91.5,0,5,0.11,90,��,6.5,53
2012/5/10,11:00:00,68,���k��,3.8,6.7,95.1,0,2,0.09,68,���k��,7.1,27
2012/5/10,12:00:00,68,���k��,4,6.8,97.8,0.5,0,0.09,68,���k��,6.6,45
2012/5/10,13:00:00,68,���k��,2.5,7.3,98.3,1.5,18,0.1,68,���k��,6.7,8
2012/5/10,14:00:00,68,���k��,2.1,7.4,98.3,1,0,0.08,68,���k��,3.6,37
2012/5/10,15:00:00,23,�k�k��,1.5,8,98.3,2,0,0.06,68,���k��,3.3,3
2012/5/10,16:00:00,360,�k,1,8.3,95.3,1,0,0.04,45,�k��,4.2,35
2012/5/10,17:00:00,68,���k��,3.8,6.6,95,0,0,0.02,68,���k��,5.9,57
2012/5/10,18:00:00,45,�k��,3.6,6,96.4,1.5,0,0.01,45,�k��,8.7,10
2012/5/10,19:00:00,45,�k��,4.9,5.6,96.6,1.5,0,0.01,68,���k��,8.3,53
2012/5/10,20:00:00,45,�k��,4.4,5.5,97.2,1,0,0.01,45,�k��,7,1
2012/5/10,21:00:00,360,�k,0.8,5.6,98,1,0,0,68,���k��,5,1
2012/5/10,22:00:00,338,�k�k��,2.6,7,96.7,0,0,0,338,�k�k��,6.2,59
2012/5/10,23:00:00,338,�k�k��,2.1,6.3,92.8,0.5,0,0,338,�k�k��,6.9,25
2012/5/10,0:00:00,338,�k�k��,2.9,5.6,91.6,0,0,0,360,�k,8.3,38
2012/5/11,1:00:00,338,�k�k��,3.8,5,91.1,0.5,0,0,315,�k��,6.8,54
2012/5/11,2:00:00,360,�k,3.6,4.5,91.5,0.5,0,0,338,�k�k��,8.4,15
2012/5/11,3:00:00,338,�k�k��,3.9,3.8,91.3,0.5,0,0,338,�k�k��,9.9,23
2012/5/11,4:00:00,360,�k,4.7,3.5,90.2,1.5,0,0.01,360,�k,10.1,56
2012/5/11,5:00:00,338,�k�k��,4.6,3.2,89.5,2,0,0.01,338,�k�k��,10.4,45
2012/5/11,6:00:00,338,�k�k��,3.7,2.9,90,1.5,0,0.02,338,�k�k��,12.6,7
2012/5/11,7:00:00,338,�k�k��,4.5,2.9,89.4,1.5,0,0.04,315,�k��,10.2,6
2012/5/11,8:00:00,360,�k,4.5,3.6,88.4,1.5,0,0.07,338,�k�k��,10.5,33
2012/5/11,9:00:00,360,�k,3.9,4.1,88.5,0.5,38,0.12,23,�k�k��,8.8,8
2012/5/11,10:00:00,338,�k�k��,4.1,4.9,87.4,0.5,60,0.16,360,�k,11.2,12
2012/5/11,11:00:00,338,�k�k��,4.3,5.3,86.3,0.5,60,0.22,338,�k�k��,11.1,24
2012/5/11,12:00:00,338,�k�k��,4.2,5.5,87.2,0,60,0.21,360,�k,10.3,41
2012/5/11,13:00:00,338,�k�k��,5.1,5.6,87.1,1,60,0.21,23,�k�k��,9.7,59
2012/5/11,14:00:00,360,�k,5.2,5.4,88.5,0.5,60,0.19,68,���k��,10.4,8
2012/5/11,15:00:00,360,�k,5.1,4.8,89.2,1,53,0.14,23,�k�k��,10.8,1
2012/5/11,16:00:00,360,�k,3.8,4.6,89.8,1.5,0,0.1,23,�k�k��,10,26
2012/5/11,17:00:00,338,�k�k��,3.4,4.2,91.4,1,0,0.07,360,�k,8.7,4
2012/5/11,18:00:00,338,�k�k��,3.1,3.8,92.8,1,0,0.03,360,�k,7.8,10
2012/5/11,19:00:00,338,�k�k��,3.1,3.5,93.2,1.5,0,0.01,338,�k�k��,7.7,51
2012/5/11,20:00:00,338,�k�k��,5.5,3.3,92.9,1,0,0.01,315,�k��,10.6,49
2012/5/11,21:00:00,315,�k��,5,3,94.3,0.5,0,0,315,�k��,8.5,55
2012/5/11,22:00:00,315,�k��,5,3.7,95.4,0.5,0,0.01,338,�k�k��,9.3,28
2012/5/11,23:00:00,338,�k�k��,4.8,4.5,94.1,0,0,0.01,338,�k�k��,9.1,49
2012/5/11,0:00:00,315,�k��,3.6,5,94.8,0.5,0,0,315,�k��,7,30
2012/5/12,1:00:00,360,�k,2.4,5.2,92,0,0,0,338,�k�k��,6.5,6
2012/5/12,2:00:00,360,�k,0.8,4.9,92.7,0,0,0.01,338,�k�k��,4.5,32
2012/5/12,3:00:00,23,�k�k��,4.5,4.1,90.3,0,0,0,23,�k�k��,7.8,53
2012/5/12,4:00:00,315,�k��,2.6,3.6,88.3,0,0,0,23,�k�k��,6.3,20
2012/5/12,5:00:00,293,���k��,2.8,4,90.4,0,0,0.01,315,�k��,4.6,52
2012/5/12,6:00:00,338,�k�k��,1.9,4.7,88,0,0,0.03,315,�k��,5.2,7
2012/5/12,7:00:00,315,�k��,3.6,5.7,84.1,0,15,0.12,315,�k��,6.1,49
2012/5/12,8:00:00,315,�k��,4.1,7.2,73.9,0,60,0.29,315,�k��,7.4,43
2012/5/12,9:00:00,338,�k�k��,2.9,9.9,65.7,0,60,0.48,315,�k��,7.3,24
2012/5/12,10:00:00,360,�k,5.6,10.4,57.7,0,60,0.6,338,�k�k��,9,50
2012/5/12,11:00:00,338,�k�k��,2.9,11.7,63.8,0,60,0.38,338,�k�k��,7.7,1
2012/5/12,12:00:00,360,�k,4.7,11.2,58.1,0,60,0.51,360,�k,11.7,22
2012/5/12,13:00:00,360,�k,6.2,9.5,62.1,0,60,0.26,338,�k�k��,10.9,28
2012/5/12,14:00:00,338,�k�k��,5.9,11.4,58.6,0,60,0.68,338,�k�k��,10.6,52
2012/5/12,15:00:00,338,�k�k��,5.4,12.7,51.6,0,60,0.69,360,�k,10.4,14
2012/5/12,16:00:00,23,�k�k��,4.8,11.7,55.6,0,60,0.59,360,�k,11.1,10
2012/5/12,17:00:00,23,�k�k��,5.4,9.8,58.3,0,46,0.3,23,�k�k��,8.5,42
2012/5/12,18:00:00,360,�k,4.2,7.9,60.3,0,28,0.14,360,�k,10.2,4
2012/5/12,19:00:00,360,�k,2.7,6.5,66.3,0,0,0.01,23,�k�k��,6.6,41
2012/5/12,20:00:00,360,�k,3,5.4,67.5,0,0,0,360,�k,5.8,58
2012/5/12,21:00:00,360,�k,2.5,5.2,68,0,0,0,338,�k�k��,5.6,23
2012/5/12,22:00:00,360,�k,2,4.1,72.1,0,0,0,360,�k,4,0
2012/5/12,23:00:00,338,�k�k��,0.8,3.7,78.3,0,0,0,360,�k,3.1,10
2012/5/12,0:00:00,225,�쐼,1.2,1.9,87,0,0,0,158,��쓌,3.5,24
2012/5/13,1:00:00,338,�k�k��,0.6,1.3,88.7,0,0,0,293,���k��,2,40
2012/5/13,2:00:00,338,�k�k��,1.4,3.2,80.9,0,0,0.01,315,�k��,2.7,59
2012/5/13,3:00:00,270,��,0.4,1.3,89.5,0,0,0.01,360,�k,3.3,47
2012/5/13,4:00:00,293,���k��,1.7,1.5,90.3,0,0,0,270,��,2.6,26
2012/5/13,5:00:00,293,���k��,2.2,1.1,92.5,0,0,0.03,293,���k��,2.7,52
2012/5/13,6:00:00,293,���k��,1.5,2.9,87.2,0,0,0.07,293,���k��,2.3,52
2012/5/13,7:00:00,338,�k�k��,1.5,7.2,70.4,0,54,0.3,360,�k,3.9,49
2012/5/13,8:00:00,338,�k�k��,2.3,9.6,57.8,0,60,0.52,315,�k��,5.1,57
2012/5/13,9:00:00,135,�쓌,3,11.4,63.3,0,60,0.74,135,�쓌,4.5,51
2012/5/13,10:00:00,158,��쓌,4.2,10.1,60.9,0,60,0.87,158,��쓌,6.8,46
2012/5/13,11:00:00,180,��,5.1,8.8,60.4,0,60,0.99,158,��쓌,7.6,56
2012/5/13,12:00:00,180,��,4.6,9.6,61.5,0,60,1.02,158,��쓌,6.9,32
2012/5/13,13:00:00,180,��,3.4,8.4,67.4,0,60,0.69,135,�쓌,6.7,15
2012/5/13,14:00:00,180,��,2.4,8,73.9,0,60,0.3,158,��쓌,5.4,10
2012/5/13,15:00:00,180,��,1.7,8.4,72.8,0,60,0.26,180,��,3.7,47
2012/5/13,16:00:00,225,�쐼,0.9,9.3,69,0,35,0.13,225,�쐼,3.1,10
2012/5/13,17:00:00,45,�k��,0.3,10.6,69.4,0,44,0.13,248,���쐼,1.6,18
2012/5/13,18:00:00,113,���쓌,0.5,8.3,82.3,0,1,0.08,135,�쓌,2.8,8
2012/5/13,19:00:00,135,�쓌,0.8,5.3,90.7,0,0,0.02,90,��,2.7,18
2012/5/13,20:00:00,360,�k,1.1,4.8,93.9,0,0,0,158,��쓌,3.4,14
2012/5/13,21:00:00,270,��,1.4,4.8,93.9,0,0,0,225,�쐼,2.5,42
2012/5/13,22:00:00,293,���k��,1.9,4.5,97.2,0,0,0.01,293,���k��,2.5,35
2012/5/13,23:00:00,293,���k��,0.6,3.6,97.7,0,0,0,270,��,2.1,13
2012/5/13,0:00:00,270,��,2,2.7,98.5,0,0,0,293,���k��,3,39
2012/5/14,1:00:00,293,���k��,2.5,3.4,97.2,0,0,0.01,270,��,3.2,7
2012/5/14,2:00:00,315,�k��,1.7,3.9,97.4,0,0,0.01,293,���k��,3.4,30
2012/5/14,3:00:00,293,���k��,2.1,4.4,96.6,0,0,0.01,315,�k��,2.7,59
2012/5/14,4:00:00,315,�k��,2.2,4.2,93.2,0,0,0.01,315,�k��,3,58
2012/5/14,5:00:00,293,���k��,2.3,4.4,91.9,0,0,0.04,293,���k��,3.8,58
2012/5/14,6:00:00,315,�k��,2.4,7.1,82.6,0,56,0.2,315,�k��,4,5
2012/5/14,7:00:00,315,�k��,2,11.4,70.2,0,60,0.4,315,�k��,3.8,10
2012/5/14,8:00:00,68,���k��,3.5,14.1,53.6,0,60,0.59,45,�k��,5.6,32
2012/5/14,9:00:00,90,��,3.3,15.8,52.9,0,60,0.77,90,��,5.4,59
2012/5/14,10:00:00,158,��쓌,3.4,12.8,53.4,0,60,0.9,113,���쓌,5.9,42
2012/5/14,11:00:00,158,��쓌,3.6,12.5,57.9,0,60,0.98,158,��쓌,6.7,44
2012/5/14,12:00:00,158,��쓌,4.2,12.9,55.5,0,60,1,180,��,6.3,57
2012/5/14,13:00:00,158,��쓌,3.8,14.2,50.9,0,60,0.98,158,��쓌,7.1,35
2012/5/14,14:00:00,180,��,4.6,13.9,53.1,0,60,0.89,158,��쓌,7,51
2012/5/14,15:00:00,180,��,3.8,13.9,51.5,0,60,0.73,180,��,6.7,0
2012/5/14,16:00:00,180,��,3.4,14.1,53.5,0,60,0.56,180,��,7,50
2012/5/14,17:00:00,158,��쓌,2.5,11.7,66.1,0,60,0.36,180,��,6.5,18
2012/5/14,18:00:00,90,��,2.4,9.2,80.5,0,35,0.14,180,��,3.6,10
2012/5/14,19:00:00,45,�k��,1,7.9,83.8,0,0,0.02,68,���k��,2.7,12
2012/5/14,20:00:00,68,���k��,2,7.3,88.1,0,0,0,68,���k��,2.7,58
2012/5/14,21:00:00,68,���k��,2.5,6.5,91.3,0,0,0,68,���k��,3.6,36
2012/5/14,22:00:00,45,�k��,2.5,6.3,93.7,0,0,0,45,�k��,4.7,36
2012/5/14,23:00:00,45,�k��,2.4,5.8,95.6,0,0,0,45,�k��,4.2,33
2012/5/14,0:00:00,23,�k�k��,3.1,5.9,95,0,0,0,23,�k�k��,4.7,54
2012/5/15,1:00:00,360,�k,1.8,5.7,94.9,0,0,0,23,�k�k��,4.1,0
2012/5/15,2:00:00,315,�k��,0.6,5.2,94.6,0,0,0,23,�k�k��,4.8,13
2012/5/15,3:00:00,270,��,0.9,4.7,95.6,0,0,0,338,�k�k��,2.4,25
2012/5/15,4:00:00,248,���쐼,1.2,3.8,97.7,0,0,0,248,���쐼,2.4,3
2012/5/15,5:00:00,315,�k��,0.4,4.6,98.5,0,0,0.02,248,���쐼,9.2,56
2012/5/15,6:00:00,315,�k��,0.9,6.5,93.6,0,17,0.1,315,�k��,2.2,25
2012/5/15,7:00:00,180,��,1.2,7.9,87.2,0,60,0.21,180,��,2.3,56
2012/5/15,8:00:00,113,���쓌,2,8.4,86.1,0,60,0.3,113,���쓌,3,51
2012/5/15,9:00:00,113,���쓌,2.3,7.7,88.8,0,60,0.26,135,�쓌,3,57
2012/5/15,10:00:00,113,���쓌,1.9,8.3,90.1,0,60,0.28,90,��,3.1,4
2012/5/15,11:00:00,90,��,2.5,7,97.2,0.5,55,0.19,90,��,3.6,48
2012/5/15,12:00:00,90,��,2.3,6.7,97.9,1,7,0.1,90,��,3.2,58
2012/5/15,13:00:00,113,���쓌,2.2,7.1,98.3,1,39,0.13,90,��,3.7,33
2012/5/15,14:00:00,90,��,2.4,7.4,98.5,0.5,40,0.13,90,��,4.3,4
2012/5/15,15:00:00,90,��,3,7.4,98.6,0.5,15,0.11,90,��,4,55
2012/5/15,16:00:00,68,���k��,2.1,6.9,98.7,0.5,0,0.05,68,���k��,4,12
2012/5/15,17:00:00,68,���k��,1.9,7.3,98.8,0.5,0,0.03,90,��,4.6,21
2012/5/15,18:00:00,68,���k��,3,7.1,98.7,1,0,0.02,68,���k��,4.5,56
2012/5/15,19:00:00,45,�k��,2.4,6.9,98.9,2,0,0.01,45,�k��,4,53
2012/5/15,20:00:00,45,�k��,2.5,6.9,98.8,2.5,0,0,45,�k��,5.2,31
2012/5/15,21:00:00,23,�k�k��,2.5,6.7,98.8,2,0,0,45,�k��,5.2,9
2012/5/15,22:00:00,315,�k��,1.4,7.2,98.7,2,0,0,360,�k,4,0
2012/5/15,23:00:00,315,�k��,1.6,7.4,98.2,2,0,0,360,�k,3,19
2012/5/15,0:00:00,293,���k��,2,7.5,98.3,1.5,0,0,293,���k��,3.7,36
2012/5/16,1:00:00,315,�k��,1.6,7.6,98.2,1.5,0,0,293,���k��,3.8,32
2012/5/16,2:00:00,315,�k��,1.4,7.5,98.1,0.5,0,0,338,�k�k��,2.7,26
2012/5/16,3:00:00,315,�k��,1.1,7.5,98.6,0,0,0,338,�k�k��,2.2,8
2012/5/16,4:00:00,338,�k�k��,2,7.7,97.9,0,0,0,338,�k�k��,3.9,56
2012/5/16,5:00:00,315,�k��,2,7.9,97.3,0,0,0.01,338,�k�k��,4.1,41
2012/5/16,6:00:00,315,�k��,1.7,8.4,97.4,0.5,0,0.04,338,�k�k��,3.6,43
2012/5/16,7:00:00,315,�k��,3.3,9.7,92.2,0,35,0.16,315,�k��,5.7,58
2012/5/16,8:00:00,315,�k��,2.8,10.9,87.4,0,60,0.32,315,�k��,6,15
2012/5/16,9:00:00,360,�k,2.3,13,81.1,0,60,0.54,315,�k��,4.9,1
2012/5/16,10:00:00,90,��,3.2,12.4,80.8,0,60,0.69,360,�k,4.9,5
2012/5/16,11:00:00,135,�쓌,3.1,12.7,81.8,0,60,1.01,113,���쓌,5.1,35